User: anonymous   Login
Location: ????????
(55.9082°N, 38.2690°E)
Time: 08:38:44
(UTC+00:00)
Language:

Cosmos 1538 Rocket - Orbit

View from above orbital plane
View from above orbital plane
View from above satellite
View from above satellite

Ground track
Ground track

The orbit is defined by the following mean orbital elements,

1 14760U          26127.87972476 +.00000000 +00000-0 +58108-4 0 00005
2 14760  74.0419 282.4816 0026681  63.7092 296.6798 14.37198935    03
Epoch (UTC): 07 May 2026 21:06:48
Eccentricity: 0.0026681
inclination: 74.0419°
perigee height: 749 km
apogee height: 787 km
right ascension of ascending node: 282.4816°
argument of perigee: 63.7092°
revolutions per day: 14.37198935
mean anomaly at epoch: 296.6798°

The dashed part of the orbit path shows where the satellite is in the earth's shadow,  

DLR